Home   Weather   Vöcklabruck   Past weeks

Flag for Austria Past Weather in Vöcklabruck, Upper Austria, Austria — Yesterday and Last 2 Weeks

Now
46 °F

Light rain. Overcast.


Feels Like: 45 °F
Forecast: 38 / 44 °F
Wind: 3 mph from West

Location: Kremsmuenster

Current Time: Apr 26, 2017 at 5:56:12 pm

Latest Report: Apr 26, 2017 at 5:00 pm


Visibility: 2 mi

Pressure: 29.83 "Hg

Humidity: 90%

Dew Point: 44 °F

Location of VöcklabruckLocation

Past Weather in Vöcklabruck — Graph

°F

Vöcklabruck Temperature Yesterday

Maximum temperature yesterday: 64 °F (at 2:00 pm)
Minimum temperature yesterday: 38 °F (at 7:00 am)
Average temperature yesterday: 51 °F

High & Low Weather Summary for the Past Weeks

 TemperatureHumidityPressure
High64 °F (Apr 25, 2:00 pm)94% (Apr 26, 1:00 am)30.57 "Hg (Apr 26, 1:00 am)
Low32 °F (Apr 19, 9:00 pm)43% (Apr 21, 6:00 pm)29.70 "Hg (Apr 25, 4:00 pm)
Average46 °F70%30.11 "Hg
* Reported Apr 11 4:00 pm — Apr 26 4:00 pm, Vöcklabruck, Weather by CustomWeather, © 2017

Note: Actual official high and low records may vary slightly from our data, if they occured in-between our weather recording intervals... More about our weather records

Advertising

Vöcklabruck Weather History for the Previous 24 Hours

Scroll right to see more
 ConditionsComfort  
Time TempWeatherWind HumidityBarometerVisibility
4:00 pm
Wed, Apr 26
47 °FCool.3 mph89%29.82 "HgN/A
3:00 pm49 °FCool.2 mph80%29.79 "HgN/A
2:00 pm50 °FCool.2 mph78%29.77 "HgN/A
1:00 pm50 °FCool.3 mph77%29.75 "HgN/A
12:00 pm50 °FCool.3 mph77%29.75 "HgN/A
11:00 am50 °FFog.5 mph78%29.75 "Hg3 mi
10:00 am49 °FCool.3 mph77%29.74 "HgN/A
9:00 am48 °FCool.2 mph77%29.74 "HgN/A
8:00 am47 °FFog.3 mph82%29.73 "Hg3 mi
7:00 am47 °FOvercast.2 mph84%29.72 "Hg4 mi
6:00 am47 °FCool.2 mph85%29.72 "HgN/A
5:00 am47 °FCool.2 mph83%29.72 "HgN/A
4:00 am47 °FCool.3 mph84%29.72 "HgN/A
3:00 am47 °FCool.5 mph82%29.71 "HgN/A
2:00 am48 °FCool.5 mph82%29.73 "HgN/A
1:00 am51 °FCool.1 mph94%29.74 "HgN/A
12:00 am51 °FCool.1 mph89%29.75 "HgN/A
11:00 pm
Tue, Apr 25
51 °FCool.1 mph91%29.75 "HgN/A
10:00 pm52 °FCool.1 mph86%29.76 "HgN/A
9:00 pm52 °FCool.2 mph86%29.75 "HgN/A
8:00 pm53 °FHeavy rain. Overcast.2 mph88%29.75 "Hg12 mi
7:00 pm53 °FCool.3 mph80%29.74 "HgN/A
6:00 pm58 °FRefreshingly cool.3 mph59%29.72 "HgN/A
5:00 pm61 °FOvercast.3 mph56%29.71 "Hg28 mi
Weather by CustomWeather, © 2017

See weather overviewHow to use our weather pages